"2005/01/01", 5.8, 6.3, 5.2
"2005/01/02", 5.3, 6.0, 4.3
"2005/01/03", 5.9, 6.4, 5.6
"2005/01/04", 6.3, 6.9, 5.8
"2005/01/05", 6.0, 6.3, 5.6
"2005/01/06", 5.6, 5.8, 5.2
"2005/01/07", 5.9, 6.7, 5.0
"2005/01/08", 5.6, 6.0, 5.0
"2005/01/09", 5.2, 5.7, 4.8
"2005/01/10", 4.6, 5.1, 3.9
"2005/01/11", 4.9, 5.3, 4.4
"2005/01/12", 4.6, 4.9, 4.1
"2005/01/13", 4.4, 4.9, 3.8
"2005/01/14", 4.4, 5.3, 3.7
"2005/01/15", 4.8, 5.0, 4.6
"2005/01/16", 5.3, 5.7, 4.9
"2005/01/17", 5.4, 5.7, 4.9
"2005/01/18", 5.5, 5.9, 4.9
"2005/01/19", 5.6, 6.0, 5.4
"2005/01/20", 5.8, 6.5, 5.3
"2005/01/21", 5.3, 6.0, 4.9
"2005/01/22", 5.0, 5.4, 4.4
"2005/01/23", 4.4, 4.6, 4.2
"2005/01/24", 4.6, 5.0, 3.9
"2005/01/25", 4.9, 5.7, 4.5
"2005/01/26", 5.0, 5.2, 4.8
"2005/01/27", 5.0, 5.8, 4.0
"2005/01/28", 5.1, 5.4, 4.8
"2005/01/29", 5.2, 5.6, 4.8
"2005/01/30", 5.6, 6.2, 5.2
"2005/01/31", 5.5, 6.3, 5.1
"2005/02/01", 5.2, 5.8, 4.7
"2005/02/02", 5.0, 5.6, 4.7
"2005/02/03", 4.5, 5.1, 3.7
"2005/02/04", 4.7, 5.6, 4.2
"2005/02/05", 4.5, 5.3, 3.9
"2005/02/06", 4.7, 5.4, 3.7
"2005/02/07", 4.9, 6.2, 4.2
"2005/02/08", 4.9, 5.1, 4.8
"2005/02/09", 5.0, 5.6, 4.2
"2005/02/10", 5.6, 6.7, 5.2
"2005/02/11", 5.7, 6.6, 5.1
"2005/02/12", 5.5, 6.0, 5.1
"2005/02/13", 5.5, 6.3, 5.2
"2005/02/14", 5.7, 6.4, 5.1
"2005/02/15", 6.0, 6.5, 5.5
"2005/02/16", 5.6, 6.0, 5.2
"2005/02/17", 5.7, 7.8, 4.9
"2005/02/18", 5.6, 6.3, 5.4
"2005/02/19", 5.4, 5.5, 5.3
"2005/02/20", 5.7, 6.1, 5.4
"2005/02/21", 6.1, 6.8, 5.4
"2005/02/22", 6.3, 6.8, 6.0
"2005/02/23", 6.6, 8.0, 5.8
"2005/02/24", 6.6, 6.8, 6.2
"2005/02/25", 5.8, 6.2, 5.6
"2005/02/26", 5.7, 6.4, 5.1
"2005/02/27", 5.6, 6.2, 4.5
"2005/02/28", 6.3, 7.2, 5.4
"2005/03/01", 6.4, 7.3, 5.9
"2005/03/02", 6.3, 7.3, 5.4
"2005/03/03", 6.5, 7.6, 5.9
"2005/03/04"," *"," *"," *"
"2005/03/05"," *"," *"," *"
"2005/03/06"," *"," *"," *"
"2005/03/07"," *"," *"," *"
"2005/03/08"," *"," *"," *"
"2005/03/09", 6.9, 7.7, 6.2
"2005/03/10", 7.3, 7.7, 7.1
"2005/03/11", 7.3, 7.4, 7.1
"2005/03/12", 7.6, 8.1, 7.2
"2005/03/13", 7.6, 8.0, 7.1
"2005/03/14", 7.6, 8.6, 7.2
"2005/03/15", 7.8, 8.7, 7.3
"2005/03/16", 8.8,11.1, 7.5
"2005/03/17", 8.7,10.3, 8.1
"2005/03/18", 9.5,11.4, 8.8
"2005/03/19", 8.7, 9.6, 7.0
"2005/03/20", 8.9, 9.4, 8.6
"2005/03/21", 9.1,10.4, 8.3
"2005/03/22", 9.4,10.0, 8.9
"2005/03/23", 9.5,10.0, 9.1
"2005/03/24", 9.3, 9.9, 8.9
"2005/03/25", 9.1, 9.8, 8.6
"2005/03/26", 8.8, 9.9, 8.3
"2005/03/27", 9.4,10.6, 8.4
"2005/03/28", 9.3, 9.6, 9.1
"2005/03/29", 9.5,10.1, 9.1
"2005/03/30", 9.6,10.5, 8.6
"2005/03/31",10.3,11.4, 9.3
"2005/04/01",10.6,11.6, 9.9
"2005/04/02",10.5,10.7,10.2
"2005/04/03",11.5,13.0,10.2
"2005/04/04",10.7,11.4,10.4
"2005/04/05",11.6,13.3, 9.8
"2005/04/06",11.4,13.7,10.6
"2005/04/07",12.1,14.2,10.5
"2005/04/08",13.4,14.7,12.2
"2005/04/09",13.2,14.0,12.6
"2005/04/10",14.2,16.2,12.9
"2005/04/11",14.2,16.2,13.3
"2005/04/12",12.6,13.3,11.8
"2005/04/13",12.1,12.4,11.2
"2005/04/14",12.9,14.6,11.9
"2005/04/15",13.7,14.5,12.8
"2005/04/16",13.7,14.1,13.4
"2005/04/17",13.7,14.5,12.8
"2005/04/18",13.8,14.5,13.3
"2005/04/19",14.3,15.6,13.4
"2005/04/20",13.8,14.0,13.7
"2005/04/21",14.4,15.5,13.7
"2005/04/22",14.6,15.9,14.0
"2005/04/23",14.7,15.6,14.0
"2005/04/24",14.9,15.7,14.4
"2005/04/25",14.8,15.4,14.4
"2005/04/26",15.2,16.5,14.8
"2005/04/27",15.7,16.9,14.7
"2005/04/28",16.6,18.2,15.6
"2005/04/29",16.7,17.5,15.8
"2005/04/30",17.2,18.1,16.3
"2005/05/01",17.6,18.4,16.9
"2005/05/02",18.2,19.1,17.8
"2005/05/03",17.8,19.1,17.0
"2005/05/04",18.2,19.1,17.4
"2005/05/05",18.4,19.1,17.8
"2005/05/06",17.6,18.3,16.8
"2005/05/07",16.7,17.9,15.2
"2005/05/08",16.8,17.5,16.5
"2005/05/09",17.2,18.6,16.4
"2005/05/10",17.5,18.5,16.9
"2005/05/11",16.6,17.1,16.1
"2005/05/12",15.9,16.2,15.6
"2005/05/13",15.5,15.9,14.9
"2005/05/14",15.2,16.0,14.7
"2005/05/15",15.2,15.7,14.8
"2005/05/16",15.4,16.3,14.7
"2005/05/17",15.7,16.9,15.0
"2005/05/18",16.4,17.4,15.6
"2005/05/19",17.3,18.2,16.6
"2005/05/20",17.4,17.9,16.9
"2005/05/21",18.2,20.2,17.0
"2005/05/22",18.2,19.1,17.6
"2005/05/23",19.2,20.4,18.5
"2005/05/24",18.6,19.5,18.1
"2005/05/25",18.8,19.9,18.0
"2005/05/26",19.4,22.0,18.2
"2005/05/27",19.5,20.9,18.6
"2005/05/28",20.2,22.5,19.0
"2005/05/29",19.3,19.6,19.0
"2005/05/30",19.1,19.4,18.8
"2005/05/31",19.1,19.6,18.6
"2005/06/01",20.0,22.6,18.9
"2005/06/02",19.2,19.7,18.6
"2005/06/03",19.1,20.3,18.4
"2005/06/04",19.2,19.9,18.7
"2005/06/05",20.1,22.5,19.0
"2005/06/06",20.9,22.6,19.8
"2005/06/07",20.8,21.7,20.1
"2005/06/08",21.3,22.3,20.5
"2005/06/09",21.6,22.3,21.1
"2005/06/10",21.5,21.9,21.2
"2005/06/11",21.9,22.8,21.2
"2005/06/12",23.0,24.5,21.9
"2005/06/13",22.7,23.0,22.4
"2005/06/14",22.4,23.0,21.9
"2005/06/15",21.8,22.3,21.1
"2005/06/16",21.1,21.4,20.8
"2005/06/17",21.9,24.0,20.7
"2005/06/18",21.6,22.4,21.1
"2005/06/19",22.3,23.4,21.6
"2005/06/20",23.3,26.1,22.0
"2005/06/21",23.2,24.2,22.5
"2005/06/22",22.8,23.6,22.5
"2005/06/23",23.0,24.0,22.4
"2005/06/24",24.0,26.7,22.6
"2005/06/25",23.6,26.5,22.8
"2005/06/26",23.6,24.4,23.2
"2005/06/27",24.0,26.4,23.3
"2005/06/28",24.9,26.3,23.4
"2005/06/29",24.9,25.3,24.5
"2005/06/30",24.8,25.6,24.3
"2005/07/01",24.9,25.1,24.7
"2005/07/02",25.2,26.7,24.6
"2005/07/03",24.2,24.7,23.7
"2005/07/04",23.5,23.7,23.3
"2005/07/05",23.9,25.0,23.0
"2005/07/06",23.4,23.8,23.2
"2005/07/07",23.5,24.2,22.9
"2005/07/08",23.5,24.0,23.0
"2005/07/09",23.5,24.0,23.2
"2005/07/10",23.5,24.0,23.2
"2005/07/11",25.5,28.7,23.7
"2005/07/12",24.3,25.2,23.3
"2005/07/13",23.5,24.2,22.9
"2005/07/14",23.2,23.4,23.1
"2005/07/15",24.6,26.8,23.0
"2005/07/16",25.3,26.8,24.4
"2005/07/17",25.5,27.3,24.2
"2005/07/18",25.6,29.1,24.1
"2005/07/19",25.7,26.8,24.3
"2005/07/20",25.8,27.2,25.0
"2005/07/21",25.5,26.2,25.0
"2005/07/22",25.1,25.3,24.9
"2005/07/23",25.0,25.8,24.5
"2005/07/24",25.1,25.8,24.6
"2005/07/25",25.2,25.7,24.7
"2005/07/26",25.0,25.2,24.8
"2005/07/27",25.8,27.1,24.7
"2005/07/28",26.6,28.9,25.9
"2005/07/29",27.3,29.1,26.2
"2005/07/30",27.3,28.9,26.2
"2005/07/31",27.9,29.9,27.1
"2005/08/01",27.8,29.0,27.0
"2005/08/02",27.8,28.5,27.4
"2005/08/03",27.7,28.2,27.3
"2005/08/04",28.5,31.9,27.4
"2005/08/05",29.3,32.0,28.1
"2005/08/06",29.8,31.8,28.4
"2005/08/07",28.9,29.6,28.5
"2005/08/08",29.1,31.1,28.3
"2005/08/09",29.5,31.3,28.3
"2005/08/10",28.7,29.3,28.5
"2005/08/11",28.8,29.7,28.1
"2005/08/12",28.5,28.9,28.2
"2005/08/13",28.0,28.4,27.7
"2005/08/14",28.9,31.4,27.5
"2005/08/15",29.5,31.7,28.4
"2005/08/16",28.7,29.1,28.4
"2005/08/17",28.6,29.4,27.8
"2005/08/18",28.8,29.8,28.1
"2005/08/19",28.8,29.5,28.2
"2005/08/20",29.1,29.8,28.8
"2005/08/21",28.9,29.7,28.5
"2005/08/22",28.3,28.7,28.0
"2005/08/23",27.8,28.3,27.5
"2005/08/24",27.2,27.6,26.9
"2005/08/25",26.7,26.9,26.6
"2005/08/26",26.4,26.8,25.7
"2005/08/27",26.8,27.2,26.4
"2005/08/28",26.3,26.6,26.0
"2005/08/29",26.8,29.6,25.6
"2005/08/30",27.2,28.5,26.3
"2005/08/31",27.0,28.3,26.4
"2005/09/01",27.1,28.3,26.1
"2005/09/02",27.6,29.8,26.3
"2005/09/03",27.2,27.7,26.8
"2005/09/04",27.0,27.5,26.6
"2005/09/05",26.3,26.6,25.8
"2005/09/06",25.7,25.8,25.5
"2005/09/07",26.0,26.5,25.6
"2005/09/08",26.7,28.2,25.6
"2005/09/09",26.3,27.1,25.9
"2005/09/10",26.7,28.3,25.8
"2005/09/11",27.0,28.8,26.2
"2005/09/12",27.6,30.3,26.6
"2005/09/13",27.7,29.4,26.6
"2005/09/14",27.7,28.6,27.2
"2005/09/15",26.4,27.4,25.7
"2005/09/16",25.5,26.0,25.0
"2005/09/17",25.7,27.0,24.8
"2005/09/18",25.9,27.1,24.9
"2005/09/19",26.6,28.3,25.5
"2005/09/20",25.8,26.2,25.5
"2005/09/21",25.3,25.5,24.8
"2005/09/22",24.7,24.9,24.4
"2005/09/23",25.2,26.3,24.3
"2005/09/24",24.9,25.5,24.0
"2005/09/25",23.1,24.0,22.2
"2005/09/26",22.0,22.4,21.7
"2005/09/27",21.8,22.0,21.4
"2005/09/28",21.2,21.4,20.9
"2005/09/29",20.8,21.1,20.4
"2005/09/30",21.1,22.0,20.3
"2005/10/01",21.1,21.6,20.8
"2005/10/02",21.3,22.1,21.0
"2005/10/03",21.6,22.1,21.5
"2005/10/04",21.4,21.5,21.2
"2005/10/05",21.1,21.2,20.9
"2005/10/06",21.0,21.3,20.7
"2005/10/07",21.0,21.3,20.6
"2005/10/08",21.2,21.5,21.0
"2005/10/09",20.9,21.4,20.4
"2005/10/10",20.5,20.7,20.2
"2005/10/11",20.0,20.2,19.8
"2005/10/12",19.9,20.2,19.6
"2005/10/13",19.9,20.5,19.3
"2005/10/14",20.7,22.1,19.5
"2005/10/15",21.0,21.7,20.5
"2005/10/16",20.4,20.8,20.0
"2005/10/17",19.7,20.0,19.5
"2005/10/18",19.3,19.5,19.0
"2005/10/19",18.7,19.0,18.5
"2005/10/20",18.6,18.9,18.1
"2005/10/21",18.6,18.9,18.2
"2005/10/22",18.4,18.6,18.2
"2005/10/23",18.2,18.7,17.9
"2005/10/24",18.3,19.4,17.5
"2005/10/25",18.4,19.3,17.7
"2005/10/26",18.1,18.6,17.6
"2005/10/27",17.4,17.6,17.2
"2005/10/28"," *"," *"," *"
"2005/10/29",17.5,17.9,17.2
"2005/10/30",17.6,17.7,17.2
"2005/10/31",16.8,17.3,16.4
"2005/11/01",16.4,17.0,15.7
"2005/11/02",16.6,18.5,15.5
"2005/11/03",16.9,17.7,16.2
"2005/11/04",17.2,18.0,16.5
"2005/11/05",16.9,18.6,16.3
"2005/11/06",16.4,16.7,16.3
"2005/11/07",16.8,17.7,16.2
"2005/11/08",16.4,17.0,15.8
"2005/11/09",16.0,16.4,15.5
"2005/11/10",15.7,16.3,15.3
"2005/11/11",15.4,15.6,15.0
"2005/11/12",15.1,15.7,14.7
"2005/11/13",14.8,15.1,14.5
"2005/11/14",14.5,14.7,14.3
"2005/11/15",13.8,14.3,13.4
"2005/11/16",13.7,14.7,13.0
"2005/11/17",13.4,14.0,13.0
"2005/11/18",13.0,14.2,12.3
"2005/11/19",12.5,12.8,12.2
"2005/11/20",12.3,13.8,11.1
"2005/11/21",11.8,12.3,11.5
"2005/11/22",11.7,12.7,11.2
"2005/11/23",11.6,11.8,11.3
"2005/11/24",11.9,13.0,11.3
"2005/11/25",11.6,11.8,11.4
"2005/11/26",11.7,12.7,10.9
"2005/11/27",11.8,12.8,11.3
"2005/11/28",11.8,12.8,11.3
"2005/11/29",11.8,12.3,11.5
"2005/11/30",11.1,11.6,10.5
"2005/12/01",10.8,12.0, 9.4
"2005/12/02",10.4,10.7,10.1
"2005/12/03",10.0,10.4, 9.3
"2005/12/04", 9.5, 9.8, 9.1
"2005/12/05", 9.3, 9.8, 8.7
"2005/12/06", 8.5, 8.9, 8.2
"2005/12/07", 8.4, 8.6, 8.0
"2005/12/08", 8.6, 9.1, 8.2
"2005/12/09", 8.4, 8.8, 8.0
"2005/12/10", 8.5, 8.9, 8.0
"2005/12/11", 7.9, 8.2, 7.5
"2005/12/12", 7.4, 7.9, 6.5
"2005/12/13", 6.7, 7.3, 5.8
"2005/12/14", 6.8, 7.2, 6.3
"2005/12/15", 6.3, 7.2, 4.9
"2005/12/16", 6.3, 6.7, 5.7
"2005/12/17", 6.0, 6.4, 5.5
"2005/12/18", 5.6, 6.1, 4.9
"2005/12/19", 4.9, 5.4, 4.3
"2005/12/20", 4.8, 5.2, 4.0
"2005/12/21", 4.7, 5.3, 4.2
"2005/12/22", 4.6, 5.1, 4.1
"2005/12/23", 4.5, 5.2, 4.2
"2005/12/24", 4.1, 4.8, 3.5
"2005/12/25", 4.0, 4.4, 3.7
"2005/12/26", 3.6, 4.0, 3.2
"2005/12/27", 3.1, 3.5, 2.2
"2005/12/28", 2.8, 3.5, 2.1
"2005/12/29", 2.6, 3.3, 2.0
"2005/12/30", 2.9, 3.4, 2.3
"2005/12/31", 3.2, 4.0, 2.7
